When you browse on this site, cookies collect data to enhance your experience and personalize the content and advertising you see.
Visit our Privacy Policy to learn more. By continuing to use the site, you agree to this use of cookies and data.
  • In Romania
  • List of Countries
  • For 7 days
  • Water Temperature
  • Satellite Maps
  • Weather Map
  • Weather Widgets
  • user-avatar
    Login

    Hourly Weather Bagdad

    Today, 26 March, Tuesday

    Time Temperature Precipitation Wind Pressure Humidity
    00:00 +19°C° 0 mm 5 mps 750 mmHg 48%
    01:00 +18°C° 0.3 mm 4 mps 751 mmHg 53%
    02:00 +18°C° 0.3 mm 4 mps 751 mmHg 59%
    03:00 +17°C° 0 mm 3 mps 751 mmHg 62%
    04:00 +16°C° 0.2 mm 3 mps 751 mmHg 65%
    05:00 +16°C° 0.2 mm 3 mps 752 mmHg 67%
    06:00 +14°C° 0.2 mm 3 mps 752 mmHg 69%
    07:00 +16°C° 0 mm 3 mps 752 mmHg 67%
    08:00 +16°C° 0 mm 3 mps 753 mmHg 66%
    09:00 +15°C° 0 mm 4 mps 753 mmHg 64%
    10:00 +18°C° 0 mm 4 mps 753 mmHg 57%
    11:00 +19°C° 0 mm 4 mps 753 mmHg 49%
    12:00 +20°C° 0 mm 5 mps 754 mmHg 42%
    13:00 +20°C° 0 mm 5 mps 754 mmHg 42%
    14:00 +21°C° 0 mm 5 mps 754 mmHg 41%
    15:00 +21°C° 0 mm 5 mps 754 mmHg 41%
    16:00 +20°C° 0 mm 5 mps 754 mmHg 41%
    17:00 +20°C° 0 mm 4 mps 755 mmHg 42%
    18:00 +19°C° 0 mm 4 mps 755 mmHg 42%
    19:00 +19°C° 0 mm 3 mps 756 mmHg 42%
    20:00 +19°C° 0 mm 3 mps 756 mmHg 43%
    21:00 +18°C° 0 mm 2 mps 757 mmHg 43%
    22:00 +18°C° 0 mm 2 mps 757 mmHg 45%
    23:00 +18°C° 0 mm 1 mps 758 mmHg 46%

    Tomorrow, 27 March, Wednesday

    Time Temperature Precipitation Wind Pressure Humidity
    00:00 +18°C° 0 mm 1 mps 758 mmHg 48%
    01:00 +18°C° 0 mm 1 mps 758 mmHg 48%
    02:00 +16°C° 0 mm 1 mps 758 mmHg 49%
    03:00 +16°C° 0 mm 1 mps 758 mmHg 49%
    04:00 +16°C° 0 mm 2 mps 758 mmHg 51%
    05:00 +16°C° 0 mm 2 mps 758 mmHg 54%
    06:00 +14°C° 0 mm 3 mps 759 mmHg 56%
    07:00 +17°C° 0 mm 3 mps 759 mmHg 52%
    08:00 +18°C° 0 mm 3 mps 759 mmHg 48%
    09:00 +19°C° 0 mm 4 mps 759 mmHg 44%
    10:00 +21°C° 0 mm 4 mps 759 mmHg 39%
    11:00 +22°C° 0 mm 4 mps 759 mmHg 35%
    12:00 +23°C° 0 mm 4 mps 759 mmHg 30%
    13:00 +23°C° 0 mm 4 mps 759 mmHg 29%
    14:00 +25°C° 0 mm 3 mps 759 mmHg 28%
    15:00 +25°C° 0 mm 3 mps 758 mmHg 26%
    16:00 +24°C° 0 mm 3 mps 758 mmHg 27%
    17:00 +24°C° 0 mm 3 mps 758 mmHg 28%
    18:00 +24°C° 0 mm 3 mps 758 mmHg 29%
    19:00 +22°C° 0 mm 4 mps 758 mmHg 31%
    20:00 +22°C° 0 mm 5 mps 758 mmHg 33%
    21:00 +21°C° 0 mm 5 mps 758 mmHg 35%
    22:00 +20°C° 0.2 mm 5 mps 758 mmHg 37%
    23:00 +20°C° 0.2 mm 6 mps 758 mmHg 40%

    Day after tomorrow, 28 March, Thursday

    Time Temperature Precipitation Wind Pressure Humidity
    00:00 +19°C° 0.2 mm 6 mps 758 mmHg 43%
    01:00 +19°C° 0.2 mm 5 mps 758 mmHg 43%
    02:00 +18°C° 0.2 mm 4 mps 758 mmHg 44%
    03:00 +18°C° 0.2 mm 2 mps 758 mmHg 45%
    04:00 +18°C° 0 mm 2 mps 758 mmHg 46%
    05:00 +17°C° 0 mm 2 mps 758 mmHg 46%
    06:00 +17°C° 0 mm 2 mps 758 mmHg 47%
    07:00 +18°C° 0 mm 2 mps 759 mmHg 44%
    08:00 +20°C° 0 mm 3 mps 759 mmHg 41%
    09:00 +21°C° 0 mm 4 mps 760 mmHg 38%
    10:00 +22°C° 0 mm 4 mps 760 mmHg 35%
    11:00 +23°C° 0 mm 4 mps 760 mmHg 32%
    12:00 +25°C° 0 mm 4 mps 760 mmHg 29%
    13:00 +25°C° 0 mm 4 mps 759 mmHg 28%
    14:00 +25°C° 0 mm 4 mps 759 mmHg 27%
    15:00 +25°C° 0 mm 5 mps 759 mmHg 26%
    16:00 +25°C° 0 mm 4 mps 759 mmHg 27%
    17:00 +23°C° 0 mm 4 mps 758 mmHg 28%
    18:00 +23°C° 0 mm 4 mps 758 mmHg 29%
    19:00 +22°C° 0 mm 3 mps 759 mmHg 30%
    20:00 +21°C° 0 mm 3 mps 759 mmHg 32%
    21:00 +21°C° 0 mm 2 mps 759 mmHg 33%
    22:00 +20°C° 0 mm 2 mps 759 mmHg 33%
    23:00 +20°C° 0 mm 2 mps 759 mmHg 34%

    29 March, Friday

    Time Temperature Precipitation Wind Pressure Humidity
    00:00 +20°C° 0 mm 2 mps 759 mmHg 34%
    01:00 +20°C° 0 mm 2 mps 759 mmHg 35%
    02:00 +19°C° 0 mm 3 mps 759 mmHg 36%
    03:00 +19°C° 0 mm 3 mps 758 mmHg 37%
    04:00 +18°C° 0 mm 3 mps 758 mmHg 38%
    05:00 +18°C° 0 mm 3 mps 758 mmHg 39%
    06:00 +18°C° 0 mm 4 mps 758 mmHg 41%
    07:00 +20°C° 0 mm 4 mps 759 mmHg 38%
    08:00 +21°C° 0 mm 5 mps 759 mmHg 36%
    09:00 +22°C° 0 mm 6 mps 759 mmHg 34%
    10:00 +24°C° 0 mm 6 mps 759 mmHg 30%
    11:00 +26°C° 0 mm 6 mps 758 mmHg 27%
    12:00 +27°C° 0 mm 5 mps 758 mmHg 24%
    13:00 +27°C° 0 mm 5 mps 757 mmHg 22%
    14:00 +28°C° 0 mm 5 mps 757 mmHg 19%
    15:00 +28°C° 0 mm 5 mps 756 mmHg 17%
    16:00 +28°C° 0 mm 4 mps 756 mmHg 18%
    17:00 +28°C° 0 mm 3 mps 756 mmHg 18%
    18:00 +27°C° 0 mm 3 mps 756 mmHg 18%
    19:00 +27°C° 0 mm 3 mps 756 mmHg 19%
    20:00 +26°C° 0 mm 3 mps 756 mmHg 20%
    21:00 +26°C° 0 mm 4 mps 756 mmHg 20%
    22:00 +25°C° 0 mm 5 mps 756 mmHg 23%
    23:00 +24°C° 0 mm 7 mps 755 mmHg 25%

    30 March, Saturday

    Time Temperature Precipitation Wind Pressure Humidity
    00:00 +23°C° 0 mm 8 mps 755 mmHg 28%
    01:00 +23°C° 0 mm 8 mps 755 mmHg 27%
    02:00 +23°C° 0 mm 9 mps 754 mmHg 27%
    03:00 +23°C° 0 mm 9 mps 754 mmHg 26%
    04:00 +22°C° 0 mm 9 mps 754 mmHg 28%
    05:00 +22°C° 0 mm 9 mps 754 mmHg 29%
    06:00 +21°C° 0 mm 9 mps 754 mmHg 31%
    07:00 +23°C° 0 mm 10 mps 754 mmHg 28%
    08:00 +24°C° 0 mm 11 mps 754 mmHg 26%
    09:00 +26°C° 0 mm 12 mps 754 mmHg 23%
    10:00 +27°C° 0.2 mm 12 mps 754 mmHg 23%
    11:00 +27°C° 0.2 mm 12 mps 754 mmHg 23%
    12:00 +28°C° 0.2 mm 12 mps 753 mmHg 23%
    13:00 +28°C° 0 mm 11 mps 753 mmHg 23%
    14:00 +29°C° 0 mm 11 mps 752 mmHg 24%
    15:00 +29°C° 0 mm 10 mps 752 mmHg 25%
    16:00 +29°C° 0 mm 9 mps 752 mmHg 26%
    17:00 +28°C° 0 mm 8 mps 751 mmHg 26%
    18:00 +28°C° 0 mm 7 mps 751 mmHg 27%
    19:00 +27°C° 0.1 mm 7 mps 751 mmHg 27%
    20:00 +27°C° 0.1 mm 8 mps 751 mmHg 26%
    21:00 +26°C° 0.1 mm 9 mps 751 mmHg 26%
    22:00 +24°C° 0.2 mm 7 mps 751 mmHg 29%
    23:00 +23°C° 0.2 mm 5 mps 751 mmHg 33%

    31 March, Sunday

    Time Temperature Precipitation Wind Pressure Humidity
    00:00 +22°C° 0.2 mm 3 mps 750 mmHg 36%
    01:00 +22°C° 0.4 mm 5 mps 750 mmHg 39%
    02:00 +21°C° 0.4 mm 7 mps 750 mmHg 43%
    03:00 +21°C° 0.4 mm 9 mps 750 mmHg 47%
    04:00 +19°C° 1.2 mm 10 mps 750 mmHg 51%
    05:00 +19°C° 1.2 mm 11 mps 750 mmHg 55%
    06:00 +19°C° 1.2 mm 12 mps 750 mmHg 60%
    07:00 +19°C° 2.1 mm 12 mps 750 mmHg 59%
    08:00 +21°C° 2.1 mm 12 mps 750 mmHg 58%
    09:00 +20°C° 2.1 mm 13 mps 750 mmHg 58%
    10:00 +23°C° 0 mm 13 mps 750 mmHg 52%
    11:00 +26°C° 0 mm 14 mps 749 mmHg 46%
    12:00 +28°C° 0 mm 15 mps 749 mmHg 40%
    13:00 +29°C° 0 mm 13 mps 749 mmHg 35%
    14:00 +31°C° 0 mm 12 mps 748 mmHg 31%
    15:00 +32°C° 0 mm 10 mps 748 mmHg 26%
    16:00 +31°C° 0 mm 9 mps 748 mmHg 28%
    17:00 +28°C° 0 mm 7 mps 749 mmHg 30%
    18:00 +27°C° 0 mm 6 mps 749 mmHg 32%
    19:00 +26°C° 0 mm 4 mps 749 mmHg 35%
    20:00 +25°C° 0 mm 3 mps 750 mmHg 37%
    21:00 +24°C° 0 mm 1 mps 750 mmHg 39%
    22:00 +24°C° 0 mm 2 mps 750 mmHg 42%
    23:00 +24°C° 0 mm 2 mps 750 mmHg 45%
    Show more